カタログに戻る

COSMOS 1823 DEB

運用中LEO
NORAD 18753·DEBRIS·🇷🇺 Russia

打ち上げ Feb 20, 1987 から Plesetsk Cosmodrome

Loading…

次のパス (今後24時間)

TLE

最新Source: Space-Track

元期: Sep 14, 2026, 05:45 UTC

1 18753U 87020AE  26257.23996612  .00000123  00000-0  98062-3 0  9995
2 18753  73.4499 355.8850 0025125 269.5259 115.4592 12.45861724760043

AllMySatでCOSMOS 1823 DEBをリアルタイム追跡

Download on the App Store